Location: Northcutt
(34.7304°N, 84.4305°W)
Time: 20:21:13
(UTC+00:00)

Transit 2A Rocket - Pass Details

Date: 12 October 2022
Orbit: 589 x 911 km, 66.7° (Epoch: 03 December)

Event Time Altitude Azimuth Distance (km) Brightness Sun altitude
Rises 09:02:08 0° 219° (SW) 2,840 - -33.2°
Reaches altitude 10° 09:04:27 10° 225° (SW) 1,922 - -32.7°
Maximum altitude 09:08:34 46° 300° (WNW) 791 - -31.9°
Exits shadow 09:12:26 12° 13° (NNE) 1,826 7.2 -31.1°
Drops below altitude 10° 09:12:43 10° 14° (NNE) 1,930 7.4 -31.1°
Sets 09:15:03 0° 21° (NNE) 2,854 8.4 -30.6°
